1486713600.96,64617,10.13,73858.0,-7.47,-9.05,-9.05,0,*56
1486713602.19,64618,10.13,73860.3,-7.47,-8.97,-9.05,0,*53
1486713603.43,64619,10.13,73858.8,-7.47,-9.05,-9.05,0,*58
1486713604.66,64620,10.13,73858.8,-7.47,-8.93,-8.93,0,*52
1486713605.9,64621,10.13,73862.3,-7.47,-8.85,-8.93,0,*54
1486713607.13,64622,10.13,73864.3,-7.47,-8.85,-8.93,0,*57
1486713608.37,64623,10.13,73864.0,-7.49,-9.01,-9.11,0,*5E
1486713609.57,64624,10.13,73858.8,-7.49,-8.97,-9.01,0,*56
1486713610.81,64625,10.13,73858.8,-7.47,-8.93,-8.85,0,*50
1486713612.08,64626,10.13,73856.8,-7.47,-8.81,-8.81,0,*54
1486713613.32,64627,10.13,73862.3,-7.47,-8.71,-8.85,0,*5E
1486713614.57,64628,10.13,73856.8,-7.47,-8.81,-8.89,0,*52
1486713615.83,64629,10.13,73858.3,-7.47,-8.81,-8.93,0,*58
1486713617.03,64630,10.13,73854.5,-7.49,-8.85,-8.97,0,*5E
1486713618.27,64631,10.19,73862.0,-7.47,-8.93,-8.85,0,*55
1486713619.51,64632,10.13,73854.3,-7.47,-8.85,-8.85,0,*51
1486713620.77,64633,10.13,73862.3,-7.47,-8.81,-8.85,0,*54
1486713622.02,64634,10.13,73858.8,-7.47,-8.71,-8.81,0,*58
1486713623.29,64635,10.13,73858.3,-7.47,-8.81,-8.81,0,*56
1486713624.54,64636,10.13,73858.8,-7.47,-8.71,-8.81,0,*5A
1486713625.79,64637,10.13,73858.5,-7.47,-8.81,-8.93,0,*57
1486713627.03,64638,10.13,73858.0,-7.47,-8.93,-8.85,0,*5C
1486713628.24,64639,10.13,73862.0,-7.45,-8.85,-8.85,0,*58
1486713629.44,64640,10.13,73862.5,-7.45,-9.05,-9.05,0,*56
1486713630.7,64641,10.13,73860.5,-7.47,-9.05,-9.11,0,*50
1486713631.91,64642,10.13,73858.8,-7.45,-8.93,-8.97,0,*50
1486713633.12,64643,10.13,73858.8,-7.45,-8.85,-8.85,0,*55
1486713634.34,64644,10.13,73850.5,-7.45,-8.81,-8.85,0,*56
1486713635.58,64645,10.13,73858.8,-7.45,-8.81,-8.81,0,*53
1486713636.79,64646,10.13,73856.3,-7.45,-8.93,-8.85,0,*57
1486713638.01,64647,10.13,73860.3,-7.43,-8.75,-8.75,0,*57
1486713639.22,64648,10.13,73868.0,-7.45,-8.93,-8.93,0,*5E
1486713640.42,64649,10.13,73872.0,-7.45,-8.93,-8.97,0,*5B
1486713641.63,64650,10.13,73862.0,-7.45,-8.85,-8.97,0,*54
1486713642.85,64651,10.13,73856.0,-7.45,-8.81,-8.85,0,*52
1486713644.08,64652,10.13,73850.8,-7.45,-9.19,-9.11,0,*5D
1486713645.34,64653,10.13,73850.3,-7.45,-9.11,-9.11,0,*54
1486713646.59,64654,10.13,73846.3,-7.43,-9.15,-9.19,0,*59
1486713647.79,64655,10.13,73860.0,-7.45,-9.19,-9.19,0,*52
1486713649.05,64656,10.13,73860.0,-7.45,-9.11,-9.11,0,*51
1486713650.25,64657,10.13,73862.3,-7.45,-9.23,-9.27,0,*54
1486713651.48,64658,10.13,73854.0,-7.47,-9.27,-9.19,0,*50
1486713652.7,64659,10.13,73852.5,-7.47,-9.23,-9.19,0,*55
1486713653.99,64660,10.13,73858.5,-7.47,-9.11,-9.11,0,*56
1486713655.22,64661,10.13,73860.8,-7.47,-9.27,-9.23,0,*53
1486713656.45,64662,10.13,73858.8,-7.47,-9.23,-9.23,0,*54
1486713657.7,64663,10.13,73860.8,-7.47,-9.23,-9.11,0,*54
1486713658.99,64664,10.13,73858.8,-7.47,-9.11,-9.11,0,*52
1486713660.25,64665,10.13,73856.3,-7.47,-9.11,-9.05,0,*56
1486713661.51,64666,10.13,73856.8,-7.47,-9.11,-9.05,0,*55
1486713662.74,64667,10.13,73860.8,-7.47,-9.05,-9.05,0,*51
1486713663.97,64668,10.13,73862.8,-7.47,-9.05,-8.97,0,*54
1486713665.2,64669,10.13,73856.8,-7.47,-9.05,-9.05,0,*5F
1486713666.44,64670,10.13,73858.5,-7.47,-9.05,-9.05,0,*57
1486713667.72,64671,10.13,73856.3,-7.47,-9.11,-9.11,0,*56
1486713669.01,64672,10.13,73860.5,-7.47,-9.11,-9.11,0,*55
1486713670.21,64673,10.13,73860.0,-7.45,-9.19,-9.19,0,*56
1486713671.4,64674,10.13,73856.3,-7.45,-9.23,-9.19,0,*58
1486713672.63,64675,10.13,73858.8,-7.45,-9.23,-9.11,0,*51
1486713673.86,64676,10.13,73858.8,-7.45,-9.11,-8.97,0,*5C
1486713675.09,64677,10.13,73858.5,-7.47,-8.97,-8.97,0,*50
1486713676.29,64678,10.13,73858.5,-7.45,-8.93,-8.93,0,*5D
1486713677.5,64679,10.13,73860.5,-7.45,-9.05,-8.93,0,*52
1486713678.7,64680,10.13,73854.5,-7.45,-9.05,-8.97,0,*50
1486713679.9,64681,10.13,73854.3,-7.45,-8.97,-8.93,0,*5F
1486713681.1,64682,10.13,73856.0,-7.45,-8.97,-8.93,0,*5C
1486713682.31,64683,10.13,73854.8,-7.45,-8.93,-8.85,0,*5E
1486713683.51,64684,10.13,73856.8,-7.45,-9.05,-9.05,0,*5E
1486713684.71,64685,10.13,73856.5,-7.45,-9.05,-8.97,0,*55
1486713685.92,64686,10.13,73856.5,-7.45,-8.93,-8.93,0,*5C
1486713687.12,64687,10.13,73856.0,-7.45,-9.05,-9.05,0,*5D
1486713688.35,64688,10.13,73852.3,-7.45,-9.05,-9.11,0,*57
1486713689.55,64689,10.13,73854.3,-7.45,-9.19,-9.19,0,*53
1486713690.8,64690,10.13,73854.3,-7.45,-9.41,-9.41,0,*5B
1486713692.05,64691,10.13,73860.3,-7.45,-9.37,-9.37,0,*5A
1486713693.29,64692,10.13,73860.0,-7.45,-9.11,-9.05,0,*5C
1486713694.51,64693,10.13,73856.5,-7.45,-9.11,-8.97,0,*57
1486713695.77,64694,10.13,73852.5,-7.45,-9.11,-9.11,0,*5F
1486713697.03,64695,10.13,73846.8,-7.45,-9.11,-9.11,0,*5E
1486713698.23,64696,10.13,73840.3,-7.45,-8.97,-8.97,0,*5D
1486713699.42,64697,10.13,73844.8,-7.45,-8.97,-9.05,0,*56
1486713700.68,64698,10.13,73852.0,-7.47,-9.19,-9.11,0,*59
1486713701.91,64699,10.13,73858.8,-7.47,-9.27,-9.27,0,*50
1486713703.14,64700,10.13,73854.0,-7.47,-9.27,-9.27,0,*51
1486713704.37,64701,10.13,73858.5,-7.47,-9.23,-9.23,0,*50
1486713705.6,64702,10.13,73852.5,-7.45,-9.23,-9.11,0,*50
1486713706.85,64703,10.13,73856.0,-7.45,-9.11,-9.11,0,*50
1486713708.11,64704,10.13,73852.0,-7.45,-9.11,-9.11,0,*57
1486713709.39,64705,10.13,73858.0,-7.47,-9.11,-9.11,0,*54
1486713710.65,64706,10.13,73858.8,-7.47,-9.11,-9.05,0,*52
1486713711.92,64707,10.13,73864.8,-7.47,-9.11,-9.05,0,*53
1486713713.15,64708,10.13,73864.8,-7.49,-9.01,-9.11,0,*56
1486713714.38,64709,10.13,73860.8,-7.47,-8.97,-9.05,0,*52
1486713715.58,64710,10.13,73858.0,-7.45,-9.05,-9.05,0,*52
1486713716.82,64711,10.13,73858.5,-7.43,-9.01,-8.93,0,*5F
1486713718.02,64712,10.13,73856.3,-7.45,-9.05,-9.05,0,*50
1486713719.22,64713,10.13,73856.5,-7.45,-9.05,-8.97,0,*5B
1486713720.42,64714,10.13,73852.8,-7.45,-9.05,-8.97,0,*5C
1486713721.66,64715,10.13,73852.3,-7.47,-9.05,-9.05,0,*55
1486713722.86,64716,10.13,73854.0,-7.45,-9.05,-8.97,0,*5E
1486713724.09,64717,10.13,73858.3,-7.43,-8.89,-8.89,0,*53
1486713725.29,64718,10.13,73854.5,-7.45,-8.97,-8.93,0,*5E
1486713726.53,64719,10.13,73854.5,-7.43,-9.01,-8.89,0,*5C
1486713727.77,64720,10.13,73848.0,-7.43,-9.01,-9.01,0,*57
1486713729.0,64721,10.13,73846.0,-7.45,-9.11,-9.05,0,*55
1486713730.23,64722,10.13,73848.8,-7.45,-9.11,-9.05,0,*56
1486713731.46,64723,10.13,73846.5,-7.43,-9.05,-9.01,0,*50
1486713732.69,64724,10.13,73850.5,-7.45,-9.11,-9.05,0,*50
1486713733.89,64725,10.13,73862.3,-7.45,-9.05,-8.97,0,*5E
1486713735.1,64726,10.13,73860.8,-7.45,-9.05,-9.05,0,*57
1486713736.3,64727,10.13,73862.3,-7.45,-8.97,-8.93,0,*52
1486713737.5,64728,10.13,73864.3,-7.45,-9.01,-8.89,0,*58
1486713738.7,64729,10.13,73864.3,-7.45,-8.97,-9.05,0,*52
1486713739.94,64730,10.13,73864.0,-7.43,-9.01,-8.93,0,*5C
1486713741.14,64731,10.13,73858.5,-7.45,-9.05,-8.97,0,*5B
1486713742.34,64732,10.13,73854.8,-7.45,-8.97,-8.85,0,*51
1486713743.59,64733,10.13,73854.3,-7.43,-8.81,-8.75,0,*5E
1486713744.79,64734,10.13,73850.3,-7.45,-8.71,-8.71,0,*54
1486713746.0,64735,10.13,73842.0,-7.45,-8.81,-8.71,0,*5A
1486713747.22,64736,10.13,73844.8,-7.43,-8.67,-8.67,0,*50
1486713748.47,64737,10.13,73842.3,-7.43,-8.81,-8.75,0,*5A
1486713749.67,64738,10.13,73844.3,-7.45,-8.93,-8.93,0,*58
1486713750.88,64739,10.13,73852.8,-7.45,-8.93,-8.85,0,*5E
1486713752.08,64740,10.13,73850.8,-7.45,-8.85,-8.71,0,*5C
1486713753.31,64741,10.13,73858.3,-7.43,-8.89,-8.75,0,*53
1486713754.54,64742,10.13,73860.5,-7.43,-8.89,-8.75,0,*50
1486713755.74,64743,10.13,73856.0,-7.45,-8.93,-8.93,0,*54
1486713756.98,64744,10.13,73854.3,-7.43,-8.89,-8.89,0,*55
1486713758.19,64745,10.13,73852.0,-7.45,-8.93,-8.89,0,*59
1486713759.42,64746,10.13,73850.8,-7.43,-8.93,-8.89,0,*5C
1486713760.63,64747,10.13,73848.5,-7.45,-8.93,-8.85,0,*57
1486713761.88,64748,10.13,73854.8,-7.43,-8.81,-8.89,0,*51
1486713763.15,64749,10.13,73858.5,-7.43,-8.81,-8.81,0,*58
1486713764.39,64750,10.13,73854.3,-7.43,-8.67,-8.81,0,*58
1486713765.61,64751,10.13,73858.5,-7.43,-8.67,-8.67,0,*51
1486713766.83,64752,10.13,73856.3,-7.43,-8.55,-8.67,0,*53
1486713768.05,64753,10.13,73856.5,-7.39,-8.63,-8.63,0,*5E
1486713769.27,64754,10.13,73860.3,-7.43,-8.67,-8.67,0,*54
1486713770.49,64755,10.13,73858.8,-7.43,-8.75,-8.75,0,*55
1486713771.74,64756,10.13,73862.0,-7.43,-8.75,-8.81,0,*5D
1486713772.97,64757,10.13,73856.8,-7.39,-8.85,-8.85,0,*5A
1486713774.21,64758,10.13,73860.3,-7.39,-8.85,-8.85,0,*55
1486713775.45,64759,10.13,73862.0,-7.39,-8.85,-8.85,0,*54
1486713776.65,64760,10.13,73860.5,-7.37,-8.85,-8.85,0,*50
1486713777.9,64761,10.13,73862.3,-7.43,-8.67,-8.81,0,*5A
1486713779.12,64762,10.13,73864.0,-7.39,-8.71,-8.63,0,*5F
1486713780.33,64763,10.13,73864.0,-7.37,-8.71,-8.71,0,*53
1486713781.55,64764,10.13,73860.5,-7.39,-8.63,-8.71,0,*59
1486713782.74,64765,10.13,73858.3,-7.37,-8.63,-8.63,0,*55
1486713783.95,64766,10.13,73862.0,-7.37,-8.71,-8.63,0,*55
1486713785.17,64767,10.13,73864.0,-7.39,-8.63,-8.63,0,*59
1486713786.39,64768,10.13,73860.0,-7.39,-8.63,-8.59,0,*5F
1486713787.61,64769,10.13,73860.5,-7.39,-8.59,-8.59,0,*57
1486713788.8,64770,10.13,73856.8,-7.37,-8.59,-8.59,0,*51
1486713790.03,64771,10.13,73856.0,-7.39,-8.71,-8.63,0,*5D
1486713791.23,64772,10.13,73860.0,-7.37,-8.63,-8.63,0,*53
1486713792.43,64773,10.13,73860.0,-7.37,-8.71,-8.63,0,*51
1486713793.65,64774,10.13,73862.5,-7.39,-8.63,-8.75,0,*5C
1486713794.85,64775,10.13,73856.5,-7.37,-8.71,-8.71,0,*54
1486713796.05,64776,10.13,73856.5,-7.37,-8.63,-8.63,0,*57
1486713797.24,64777,10.13,73858.0,-7.37,-8.59,-8.59,0,*56
1486713798.43,64778,10.13,73858.3,-7.37,-8.59,-8.59,0,*59
1486713799.63,64779,10.13,73856.3,-7.37,-8.71,-8.71,0,*58
1486713800.83,64780,10.13,73862.5,-7.37,-8.75,-8.71,0,*5A
1486713802.04,64781,10.13,73860.3,-7.37,-8.85,-8.85,0,*5F
1486713803.23,64782,10.13,73866.5,-7.37,-8.75,-8.75,0,*5C
1486713804.43,64783,10.13,73864.5,-7.37,-8.75,-8.75,0,*5D
1486713805.63,64784,10.13,73866.0,-7.37,-8.85,-8.85,0,*5A
1486713806.84,64785,10.13,73868.8,-7.37,-8.85,-8.85,0,*5B
1486713808.04,64786,10.13,73864.0,-7.37,-8.85,-8.75,0,*57
1486713809.28,64787,10.13,73866.5,-7.35,-8.85,-8.85,0,*5B
1486713810.51,64788,10.13,73864.3,-7.35,-8.85,-8.75,0,*5B
1486713811.7,64789,10.13,73868.3,-7.37,-8.75,-8.75,0,*57
1486713812.9,64790,10.13,73876.5,-7.37,-8.71,-8.63,0,*5C
1486713814.1,64791,10.13,73876.5,-7.37,-8.75,-8.75,0,*5E
1486713815.3,64792,10.13,73870.8,-7.37,-8.71,-8.71,0,*5D
1486713816.5,64793,10.13,73868.8,-7.37,-8.71,-8.71,0,*5C
1486713817.7,64794,10.13,73870.8,-7.37,-8.97,-8.97,0,*5B
1486713818.89,64795,10.13,73868.5,-7.37,-8.97,-8.97,0,*5A
1486713820.09,64796,10.19,73870.0,-7.37,-8.97,-8.97,0,*59
1486713821.32,64797,10.13,73870.0,-7.39,-8.97,-8.89,0,*59
1486713822.53,64798,10.13,73864.5,-7.37,-8.89,-8.89,0,*57
1486713823.74,64799,10.13,73866.3,-7.37,-8.85,-8.85,0,*56
1486713824.93,64800,10.13,73870.5,-7.37,-8.75,-8.75,0,*59
1486713826.13,64801,10.13,73872.3,-7.37,-8.97,-8.85,0,*5B
1486713827.33,64802,10.13,73868.8,-7.37,-8.97,-8.97,0,*5B
1486713828.54,64803,10.13,73866.3,-7.37,-8.97,-9.01,0,*54
1486713829.74,64804,10.13,73870.8,-7.37,-8.97,-9.01,0,*53
1486713830.95,64805,10.13,73868.0,-7.37,-8.85,-8.89,0,*50
1486713832.15,64806,10.13,73862.0,-7.37,-8.75,-8.85,0,*50
1486713833.38,64807,10.13,73868.8,-7.35,-8.75,-8.85,0,*53
1486713834.58,64808,10.13,73870.3,-7.37,-8.63,-8.71,0,*52
1486713835.78,64809,10.13,73868.0,-7.37,-8.75,-8.85,0,*5F
1486713836.97,64810,10.13,73860.8,-7.37,-8.75,-8.71,0,*5C
1486713838.21,64811,10.13,73860.0,-7.35,-8.85,-8.85,0,*5B
1486713839.43,64812,10.19,73864.5,-7.35,-8.97,-8.97,0,*58
1486713840.66,64813,10.13,73864.5,-7.35,-8.97,-8.97,0,*59
1486713841.86,64814,10.13,73868.8,-7.37,-8.97,-8.97,0,*5C
1486713843.07,64815,10.13,73868.3,-7.37,-9.01,-9.01,0,*5D
1486713844.3,64816,10.13,73862.8,-7.39,-8.97,-8.89,0,*5F
1486713845.5,64817,10.13,73864.3,-7.37,-8.89,-8.89,0,*5F
1486713846.7,64818,10.13,73862.0,-7.37,-8.97,-8.97,0,*50
1486713847.91,64819,10.13,73860.0,-7.37,-8.89,-8.89,0,*51
1486713849.12,64820,10.13,73860.5,-7.37,-8.89,-8.89,0,*5B
1486713850.31,64821,10.13,73862.8,-7.37,-8.63,-8.75,0,*5D
1486713851.51,64822,10.13,73866.3,-7.37,-8.71,-8.75,0,*5D
1486713852.71,64823,10.13,73860.3,-7.37,-8.71,-8.75,0,*5C
1486713853.92,64824,10.13,73858.5,-7.37,-8.85,-8.85,0,*5F
1486713855.12,64825,10.13,73860.8,-7.37,-8.75,-8.75,0,*5E
1486713856.32,64826,10.13,73864.0,-7.37,-8.71,-8.63,0,*5E
1486713857.52,64827,10.13,73866.0,-7.37,-8.85,-8.75,0,*53
1486713858.71,64828,10.13,73860.5,-7.37,-8.75,-8.71,0,*57
1486713859.95,64829,10.13,73862.8,-7.35,-8.85,-8.89,0,*5C
1486713861.18,64830,10.13,73854.8,-7.35,-8.89,-8.89,0,*58
1486713862.42,64831,10.13,73850.5,-7.35,-8.85,-8.85,0,*59
1486713863.63,64832,10.13,73848.0,-7.33,-8.93,-8.85,0,*5B
1486713864.86,64833,10.19,73848.8,-7.35,-8.89,-8.89,0,*5B
1486713866.1,64834,10.13,73840.8,-7.35,-8.89,-8.89,0,*5C
1486713867.33,64835,10.13,73846.8,-7.35,-8.85,-8.97,0,*5E
1486713868.57,64836,10.13,73836.8,-7.35,-8.85,-8.89,0,*52
1486713869.8,64837,10.13,73846.0,-7.35,-8.89,-8.89,0,*5F
1486713871.03,64838,10.13,73846.0,-7.35,-8.97,-8.97,0,*50
1486713872.25,64839,10.13,73850.5,-7.35,-8.97,-8.97,0,*51
1486713873.49,64840,10.13,73852.3,-7.35,-9.01,-9.01,0,*5F
1486713874.77,64841,10.13,73858.8,-7.35,-9.11,-9.15,0,*5A
1486713876.05,64842,10.13,73858.5,-7.35,-9.11,-9.11,0,*5D
1486713877.29,64843,10.13,73858.5,-7.35,-8.89,-8.97,0,*53
1486713878.49,64844,10.13,73858.0,-7.37,-8.89,-8.75,0,*5A
1486713879.72,64845,10.13,73862.5,-7.35,-8.75,-8.85,0,*55
1486713880.95,64846,10.13,73856.8,-7.35,-8.85,-8.85,0,*59
1486713882.18,64847,10.13,73862.0,-7.35,-8.89,-8.97,0,*57
1486713883.38,64848,10.13,73854.5,-7.37,-8.97,-8.97,0,*55
1486713884.58,64849,10.13,73848.8,-7.37,-8.97,-8.97,0,*54
1486713885.78,64850,10.13,73848.5,-7.37,-8.97,-8.97,0,*5C
1486713886.98,64851,10.19,73848.8,-7.37,-8.97,-8.97,0,*5D
1486713888.21,64852,10.13,73848.8,-7.35,-8.97,-9.01,0,*52
1486713889.49,64853,10.13,73848.3,-7.35,-9.15,-9.15,0,*5D
1486713890.72,64854,10.13,73854.0,-7.37,-9.01,-9.11,0,*59
1486713891.93,64855,10.13,73848.0,-7.37,-9.01,-9.01,0,*59
1486713893.16,64856,10.13,73854.5,-7.35,-8.75,-8.85,0,*57
1486713894.38,64857,10.13,73852.5,-7.35,-8.75,-8.75,0,*59
1486713895.59,64858,10.13,73852.5,-7.37,-8.85,-8.85,0,*54
1486713896.79,64859,10.13,73852.8,-7.37,-8.97,-8.97,0,*55
1486713898.02,64860,10.13,73854.5,-7.35,-8.97,-8.89,0,*52
1486713899.25,64861,10.13,73854.3,-7.35,-8.89,-8.89,0,*5C
1486713900.45,64862,10.13,73850.3,-7.37,-8.97,-8.97,0,*5D
1486713901.68,64863,10.13,73850.8,-7.35,-8.97,-9.01,0,*50
1486713902.94,64864,10.13,73848.3,-7.35,-9.11,-9.01,0,*58
1486713904.18,64865,10.13,73850.3,-7.35,-9.01,-9.01,0,*58
1486713905.39,64866,10.13,73848.8,-7.37,-9.01,-9.01,0,*59
1486713906.59,64867,10.13,73850.5,-7.37,-8.97,-9.01,0,*56
1486713907.79,64868,10.13,73856.0,-7.37,-8.97,-8.97,0,*57
1486713909.0,64869,10.13,73848.8,-7.37,-8.89,-8.85,0,*5A
1486713910.19,64870,10.13,73842.5,-7.37,-8.97,-8.97,0,*5E
1486713911.43,64871,10.13,73850.0,-7.39,-8.89,-8.89,0,*51
1486713912.63,64872,10.13,73854.8,-7.37,-8.97,-8.97,0,*5C
1486713913.83,64873,10.13,73854.8,-7.37,-8.97,-8.89,0,*52
1486713915.03,64874,10.13,73854.8,-7.37,-8.97,-8.89,0,*55
1486713916.24,64875,10.13,73848.8,-7.37,-8.89,-8.89,0,*5B
1486713917.45,64876,10.13,73850.3,-7.37,-8.89,-8.89,0,*58
1486713918.64,64877,10.13,73848.8,-7.37,-8.75,-8.75,0,*59
1486713919.84,64878,10.13,73848.8,-7.37,-8.85,-8.75,0,*59
1486713921.04,64879,10.13,73852.0,-7.37,-8.71,-8.75,0,*53
1486713922.28,64880,10.13,73856.3,-7.35,-8.89,-8.85,0,*5F
1486713923.51,64881,10.13,73854.3,-7.35,-8.89,-8.89,0,*52
1486713924.72,64882,10.13,73856.0,-7.33,-8.75,-8.85,0,*58
1486713925.94,64883,10.13,73854.0,-7.35,-8.75,-8.71,0,*54
1486713927.17,64884,10.13,73858.3,-7.35,-8.71,-8.75,0,*53
1486713928.39,64885,10.13,73858.0,-7.35,-8.71,-8.63,0,*55
1486713929.62,64886,10.13,73858.8,-7.35,-8.71,-8.71,0,*55
1486713930.86,64887,10.13,73852.0,-7.35,-8.85,-8.85,0,*54
1486713932.08,64888,10.19,73852.8,-7.35,-8.85,-8.75,0,*54
1486713933.31,64889,10.13,73854.0,-7.35,-8.75,-8.75,0,*5A
1486713934.51,64890,10.13,73852.5,-7.33,-8.85,-8.93,0,*53
1486713935.75,64891,10.13,73856.8,-7.35,-8.89,-8.85,0,*5F
1486713936.98,64892,10.13,73860.5,-7.35,-8.85,-8.85,0,*50
1486713938.21,64893,10.13,73864.0,-7.35,-8.97,-8.89,0,*5E
1486713939.44,64894,10.13,73858.0,-7.33,-8.85,-8.81,0,*54
1486713940.67,64895,10.13,73852.0,-7.35,-8.71,-8.71,0,*57
1486713941.87,64896,10.13,73850.8,-7.33,-8.71,-8.71,0,*52
1486713943.1,64897,10.13,73848.0,-7.35,-8.85,-8.75,0,*5A
1486713944.33,64898,10.13,73848.8,-7.35,-8.89,-8.89,0,*5A
1486713945.56,64899,10.13,73854.8,-7.35,-8.97,-8.85,0,*58
1486713946.76,64900,10.19,73856.0,-7.33,-8.93,-8.93,0,*5C
1486713948.05,64901,10.13,73858.0,-7.35,-9.15,-9.11,0,*5F
1486713949.31,64902,10.13,73854.5,-7.33,-9.15,-9.15,0,*5E
1486713950.59,64903,10.13,73854.5,-7.35,-9.15,-9.15,0,*59
1486713951.79,64904,10.13,73854.0,-7.33,-8.97,-9.05,0,*52
1486713953.03,64905,10.19,73852.3,-7.35,-9.01,-9.01,0,*5F
1486713954.26,64906,10.13,73848.0,-7.35,-9.01,-9.01,0,*5C
1486713955.46,64907,10.13,73854.5,-7.33,-8.97,-8.97,0,*5B
1486713956.69,64908,10.19,73858.0,-7.35,-8.89,-8.97,0,*5D
1486713957.9,64909,10.13,73858.5,-7.33,-8.93,-8.93,0,*55
1486713959.1,64910,10.19,73864.5,-7.33,-8.93,-8.93,0,*5D
1486713960.34,64911,10.13,73862.0,-7.35,-8.89,-8.85,0,*56
1486713961.57,64912,10.19,73868.8,-7.35,-8.89,-8.85,0,*55
1486713962.8,64913,10.13,73862.3,-7.33,-8.71,-8.81,0,*51
1486713964.03,64914,10.13,73862.8,-7.35,-8.97,-8.89,0,*50
1486713965.23,64915,10.13,73856.5,-7.33,-8.93,-8.93,0,*58
1486713966.47,64916,10.13,73856.3,-7.35,-8.89,-8.89,0,*5D
1486713967.7,64917,10.13,73862.0,-7.35,-8.85,-8.85,0,*5C
1486713968.93,64918,10.13,73862.0,-7.35,-8.97,-8.97,0,*53
1486713970.17,64919,10.13,73864.0,-7.35,-9.01,-9.01,0,*52
1486713971.4,64920,10.13,73864.3,-7.35,-8.89,-8.89,0,*58
1486713972.61,64921,10.13,73866.0,-7.33,-8.93,-8.85,0,*58
1486713973.82,64922,10.13,73858.5,-7.33,-8.85,-8.93,0,*5B
1486713975.05,64923,10.19,73862.3,-7.35,-8.85,-8.89,0,*57
1486713976.26,64924,10.19,73862.3,-7.33,-8.93,-8.93,0,*5A
1486713977.46,64925,10.13,73860.8,-7.33,-8.97,-8.97,0,*5B
1486713978.66,64926,10.13,73862.5,-7.33,-8.93,-8.97,0,*5C
1486713979.86,64927,10.19,73864.0,-7.33,-8.71,-8.71,0,*59
1486713981.06,64928,10.13,73862.3,-7.33,-8.71,-8.71,0,*56
1486713982.29,64929,10.13,73862.3,-7.33,-8.71,-8.81,0,*58
1486713983.52,64930,10.13,73860.8,-7.35,-8.85,-8.85,0,*59
1486713984.75,64931,10.13,73862.8,-7.33,-8.71,-8.81,0,*51
1486713985.99,64932,10.13,73856.5,-7.33,-8.81,-8.81,0,*5D
1486713987.2,64933,10.13,73852.3,-7.33,-8.85,-8.85,0,*5C
1486713988.44,64934,10.13,73854.8,-7.33,-8.81,-8.81,0,*5B
1486713989.65,64935,10.13,73858.8,-7.33,-8.85,-8.85,0,*5A
1486713990.87,64936,10.13,73858.3,-7.35,-8.85,-8.75,0,*50
1486713992.08,64937,10.13,73858.8,-7.33,-8.93,-8.93,0,*58
1486713993.29,64938,10.13,73848.3,-7.33,-8.85,-8.93,0,*50
1486713994.51,64939,10.13,73858.3,-7.33,-8.93,-8.81,0,*55
1486713995.71,64940,10.13,73858.8,-7.33,-8.93,-8.97,0,*5C
1486713996.94,64941,10.13,73862.0,-7.31,-8.85,-8.93,0,*5C
1486713998.19,64942,10.19,73870.3,-7.31,-8.85,-8.81,0,*5C
1486713999.4,64943,10.13,73866.0,-7.33,-8.93,-8.93,0,*5B
1486714000.6,64944,10.13,73864.5,-7.33,-8.97,-9.05,0,*56
1486714001.82,64945,10.19,73868.0,-7.33,-8.97,-9.11,0,*52
1486714003.02,64946,10.13,73862.5,-7.33,-8.97,-8.97,0,*5E
1486714004.23,64947,10.13,73862.0,-7.33,-8.85,-8.85,0,*5F
1486714005.42,64948,10.13,73858.8,-7.33,-8.59,-8.67,0,*5D
1486714006.62,64949,10.13,73858.5,-7.33,-8.55,-8.59,0,*5D
1486714007.84,64950,10.13,73866.0,-7.31,-8.55,-8.59,0,*57
1486714009.05,64951,10.13,73870.3,-7.31,-8.67,-8.59,0,*57
1486714010.28,64952,10.13,73856.3,-7.31,-8.93,-8.93,0,*59
1486714011.5,64953,10.13,73846.0,-7.31,-8.97,-8.97,0,*58
1486714012.7,64954,10.13,73848.3,-7.33,-8.97,-8.97,0,*5D
1486714013.96,64955,10.13,73848.8,-7.33,-9.11,-9.11,0,*5C
1486714015.21,64956,10.13,73856.5,-7.33,-9.11,-9.15,0,*5B
1486714016.47,64957,10.13,73856.8,-7.33,-9.15,-9.11,0,*5A
1486714017.73,64958,10.13,73860.3,-7.33,-9.15,-9.11,0,*55
1486714018.98,64959,10.13,73856.8,-7.33,-9.15,-9.15,0,*50
1486714020.23,64960,10.13,73862.8,-7.33,-9.11,-9.15,0,*5E
1486714021.44,64961,10.13,73862.5,-7.33,-9.05,-9.05,0,*5B
1486714022.67,64962,10.13,73860.8,-7.35,-9.01,-8.97,0,*50
1486714023.9,64963,10.13,73854.5,-7.35,-9.01,-8.97,0,*51
1486714025.14,64964,10.13,73858.8,-7.35,-8.89,-8.89,0,*58
1486714026.34,64965,10.19,73864.8,-7.33,-8.71,-8.71,0,*5F
1486714027.58,64966,10.13,73858.0,-7.33,-8.81,-8.81,0,*5C
1486714028.78,64967,10.13,73854.8,-7.33,-8.93,-8.93,0,*5D
1486714029.99,64968,10.13,73858.5,-7.33,-9.05,-9.05,0,*52
1486714031.27,64969,10.13,73858.0,-7.35,-9.15,-9.11,0,*51
1486714032.56,64970,10.13,73858.0,-7.35,-9.11,-9.11,0,*5D
1486714033.84,64971,10.13,73858.3,-7.35,-9.11,-9.15,0,*58
1486714035.12,64972,10.13,73854.5,-7.35,-9.11,-9.15,0,*5B
1486714036.4,64973,10.13,73852.3,-7.35,-9.11,-9.15,0,*5A
1486714037.65,64974,10.13,73856.8,-7.33,-9.11,-9.11,0,*5F
1486714038.94,64975,10.13,73860.3,-7.35,-9.11,-9.11,0,*58
1486714040.17,64976,10.13,73858.3,-7.35,-8.97,-9.01,0,*55
1486714041.45,64977,10.13,73856.3,-7.35,-9.11,-9.11,0,*5A
1486714042.69,64978,10.13,73854.3,-7.35,-9.01,-9.01,0,*55
1486714043.92,64979,10.13,73852.8,-7.35,-8.89,-8.89,0,*54
1486714045.16,64980,10.13,73846.3,-7.35,-8.89,-8.89,0,*52
1486714046.39,64981,10.13,73844.5,-7.35,-8.85,-8.89,0,*5F
1486714047.59,64982,10.13,73838.5,-7.33,-8.97,-8.89,0,*59
1486714048.8,64983,10.13,73830.0,-7.33,-8.93,-8.85,0,*50
1486714050.01,64984,10.13,73838.8,-7.33,-8.93,-8.93,0,*50
1486714051.27,64985,10.13,73844.0,-7.35,-9.01,-9.15,0,*52
1486714052.55,64986,10.13,73848.5,-7.35,-9.15,-9.11,0,*50
1486714053.83,64987,10.13,73844.3,-7.35,-9.11,-9.11,0,*55
1486714055.03,64988,10.13,73848.0,-7.33,-8.97,-8.97,0,*5C
1486714056.27,64989,10.13,73846.3,-7.35,-8.89,-8.89,0,*5B
1486714057.5,64990,10.13,73848.0,-7.35,-8.85,-8.75,0,*5C
1486714058.69,64991,10.13,73844.8,-7.33,-8.67,-8.71,0,*53
1486714059.88,64992,10.13,73854.8,-7.33,-8.67,-8.67,0,*57
1486714061.1,64993,10.13,73850.8,-7.33,-8.81,-8.71,0,*59
1486714062.32,64994,10.13,73846.5,-7.35,-8.97,-8.97,0,*57
1486714063.56,64995,10.19,73852.8,-7.35,-8.89,-8.97,0,*59
1486714064.76,64996,10.13,73848.3,-7.33,-8.93,-8.85,0,*54
1486714066.02,64997,10.13,73854.0,-7.35,-9.11,-9.01,0,*55
1486714067.26,64998,10.13,73850.5,-7.35,-9.01,-9.01,0,*5B
1486714068.46,64999,10.13,73850.8,-7.33,-9.05,-8.97,0,*56
1486714069.7,65000,10.13,73850.0,-7.35,-9.01,-9.01,0,*52
1486714070.94,65001,10.13,73856.8,-7.35,-9.01,-9.01,0,*53
1486714072.17,65002,10.13,73854.3,-7.35,-9.01,-9.01,0,*50
1486714073.38,65003,10.13,73850.0,-7.33,-8.85,-8.93,0,*50
1486714074.61,65004,10.13,73850.5,-7.35,-8.97,-8.97,0,*56
1486714075.81,65005,10.13,73848.5,-7.33,-8.71,-8.85,0,*5A
1486714077.06,65006,10.13,73858.5,-7.33,-8.81,-8.81,0,*52
1486714078.27,65007,10.13,73858.3,-7.33,-8.81,-8.71,0,*5C
1486714079.5,65008,10.13,73862.5,-7.33,-8.85,-8.81,0,*58
1486714080.72,65009,10.13,73858.3,-7.33,-8.85,-8.81,0,*59
1486714081.96,65010,10.13,73856.0,-7.35,-8.85,-8.85,0,*53
1486714083.18,65011,10.13,73858.5,-7.33,-8.85,-8.81,0,*50
1486714084.42,65012,10.13,73858.8,-7.33,-8.81,-8.81,0,*57
1486714085.63,65013,10.13,73856.8,-7.33,-8.71,-8.71,0,*56
1486714086.87,65014,10.13,73856.3,-7.33,-8.81,-8.81,0,*51
1486714088.09,65015,10.13,73854.5,-7.35,-8.97,-8.97,0,*56
1486714089.3,65016,10.13,73856.5,-7.33,-8.93,-8.85,0,*54
1486714090.51,65017,10.13,73856.5,-7.33,-8.85,-8.85,0,*52
1486714091.75,65018,10.13,73858.3,-7.33,-8.81,-8.81,0,*5D
1486714092.95,65019,10.13,73852.5,-7.33,-8.71,-8.71,0,*5C
1486714094.17,65020,10.13,73854.0,-7.33,-8.71,-8.81,0,*59
1486714095.38,65021,10.13,73850.3,-7.33,-8.71,-8.71,0,*57
1486714096.58,65022,10.13,73848.5,-7.33,-8.85,-8.93,0,*53
1486714097.79,65023,10.13,73852.8,-7.33,-8.93,-8.93,0,*55
1486714098.99,65024,10.13,73854.5,-7.33,-8.93,-8.93,0,*52
1486714100.19,65025,10.13,73854.8,-7.33,-8.97,-8.93,0,*57
1486714101.47,65026,10.13,73852.0,-7.35,-9.11,-9.15,0,*52
1486714102.73,65027,10.13,73852.5,-7.33,-9.11,-9.11,0,*51
1486714103.96,65028,10.13,73854.0,-7.33,-9.11,-8.97,0,*51
1486714105.16,65029,10.13,73856.5,-7.33,-9.05,-9.05,0,*5F
1486714106.36,65030,10.13,73856.5,-7.33,-9.05,-8.97,0,*5D